Stations météo

Publicité
Limoges, France (7434): Température de l'air & dewpoint: 19.06.2018 06:00:00 - 25.06.2018 06:00:00 (CEST)Limoges, France (7434): Température de l'air 5cm: 19.06.2018 06:00:00 - 25.06.2018 06:00:00 (CEST)Limoges, France (7434): Température de l'air -20cm & Température de l'air -100cm: 19.06.2018 06:00:00 - 25.06.2018 06:00:00 (CEST)Limoges, France (7434): Vitesse du vent & gusts: 19.06.2018 06:00:00 - 25.06.2018 06:00:00 (CEST)Limoges, France (7434): Direction du vent: 19.06.2018 06:00:00 - 25.06.2018 06:00:00 (CEST)Limoges, France (7434): reduced air pressure: 19.06.2018 06:00:00 - 25.06.2018 06:00:00 (CEST)Limoges, France (7434): visibility: 19.06.2018 06:00:00 - 25.06.2018 06:00:00 (CEST)Limoges, France (7434): Ensoleillement: 19.06.2018 06:00:00 - 25.06.2018 06:00:00 (CEST)Limoges, France (7434): Quantités de précipitations: 19.06.2018 06:00:00 - 25.06.2018 06:00:00 (CEST)
Date & Time tt [°C] td [°C] tt 5cm [°C] tt -20cm [°C] tt -100cm [°C] ff [km/h] ff [knt] fx [km/h] fx [knt] dd ppp [hPa] vv [km] sd [min] rr [mm]
25.06.2018 06:00:00 13,5 5,9 - - - 11 6 22 12 ENE 1020,4 40 0 -
25.06.2018 05:00:00 13,9 5,5 11,9 20,4 18,3 14 8 29 16 NE 1020,2 41 0 0,0
25.06.2018 04:00:00 14,8 5,6 13,3 20,4 18,3 22 12 33 18 ENE 1020,0 40 0 0,0
25.06.2018 03:00:00 15,2 6,7 13,3 20,5 18,3 15 8 28 15 NE 1020,0 40 0 0,0
25.06.2018 02:00:00 15,4 7,7 13,6 20,6 18,3 19 10 26 14 NE 1020,3 38 0 0,0
25.06.2018 01:00:00 16,3 8,3 14,8 20,7 18,3 18 10 28 15 NNE 1020,5 39 0 0,0
25.06.2018 00:00:00 17,1 7,4 15,2 20,7 18,3 15 8 28 15 NNE 1020,1 40 0 0,0
24.06.2018 23:00:00 17,8 6,6 15,5 20,7 18,3 14 8 23 12 NNE 1020,3 43 0 0,0
24.06.2018 22:00:00 18,3 6,8 16,1 20,7 18,3 13 7 24 13 NNE 1019,7 40 0 0,0
24.06.2018 21:00:00 19,7 7,4 18,7 20,6 18,3 13 7 27 14 NNE 1019,3 45 16 0,0
24.06.2018 20:00:00 20,9 8,5 21,5 20,5 18,3 18 10 35 19 NNE 1018,9 20 50 0,0
24.06.2018 19:00:00 21,7 8,9 23,9 20,4 18,3 21 11 35 19 NE 1018,5 20 60 0,0
24.06.2018 18:00:00 22,2 9,7 24,8 20,3 18,3 19 11 39 21 NNE 1018,7 18 60 0,0
24.06.2018 17:00:00 22,7 10,5 26,4 20,1 18,3 18 10 38 20 NNE 1018,9 17 58 0,0
24.06.2018 16:00:00 22,7 10,5 25,7 20,0 18,3 20 11 37 20 NNE 1018,9 13 56 0,0
24.06.2018 15:00:00 23,3 10,7 27,7 19,9 18,3 21 11 40 22 NE 1019,0 13 60 0,0
24.06.2018 14:00:00 22,3 10,8 25,9 19,9 18,3 19 11 41 22 NE 1019,5 13 58 0,0
24.06.2018 13:00:00 21,7 9,6 25,2 19,9 18,3 21 11 36 20 ENE 1019,8 13 60 0,0
24.06.2018 12:00:00 20,5 8,8 23,6 19,9 18,3 26 14 44 24 NE 1019,8 14 60 0,0
24.06.2018 11:00:00 19,5 9,1 22,7 19,9 18,3 28 15 44 24 NE 1020,0 16 60 0,0
24.06.2018 10:00:00 18,1 8,9 18,2 20,0 18,3 23 13 39 21 ENE 1020,5 19 37 0,0
24.06.2018 09:00:00 16,3 8,8 17,2 20,1 18,3 15 8 34 19 ENE 1020,7 21 51 0,0
24.06.2018 08:00:00 15,3 8,5 13,4 20,2 18,3 20 11 31 17 NE 1020,4 23 19 0,0
24.06.2018 07:00:00 14,0 8,2 12,4 20,3 18,3 21 11 30 16 NE 1020,3 29 15 0,0
24.06.2018 06:00:00 13,7 8,1 12,4 20,4 18,3 18 10 28 15 ENE 1020,3 32 0 0,0
24.06.2018 05:00:00 14,1 8,1 12,8 20,5 18,3 17 9 33 18 ENE 1020,1 34 0 0,0
24.06.2018 04:00:00 14,7 8,0 13,4 20,7 18,3 20 11 33 18 ENE 1020,5 34 0 0,0
24.06.2018 03:00:00 15,2 8,0 13,8 20,7 18,3 21 12 32 17 NE 1021,0 35 0 0,0
24.06.2018 02:00:00 15,6 7,6 13,8 20,8 18,3 20 11 34 18 NE 1021,3 37 0 0,0
24.06.2018 01:00:00 16,2 7,4 14,2 20,9 18,3 21 11 32 17 NE 1021,5 37 0 0,0
24.06.2018 00:00:00 16,2 7,1 14,3 20,9 18,3 15 8 29 15 NE 1021,8 39 0 0,0
23.06.2018 23:00:00 17,5 6,7 15,8 20,9 18,3 15 8 26 14 NNE 1021,8 43 0 0,0
23.06.2018 22:00:00 18,3 6,5 16,7 20,9 18,3 17 9 28 15 NNE 1021,3 41 0 0,0
23.06.2018 21:00:00 19,1 6,6 17,5 20,8 18,3 16 9 37 20 NE 1021,0 37 8 0,0
23.06.2018 20:00:00 21,7 7,1 22,5 20,7 18,3 22 12 38 20 NE 1020,7 25 49 0,0
23.06.2018 19:00:00 21,8 7,2 22,7 20,5 18,3 23 13 40 22 NE 1020,8 20 51 0,0
23.06.2018 18:00:00 22,3 7,3 24,1 20,4 18,3 23 12 36 19 NE 1021,0 10 56 0,0
23.06.2018 17:00:00 22,3 7,7 27,2 20,2 18,3 23 12 46 25 NNE 1021,3 9 60 0,0
23.06.2018 16:00:00 22,3 6,5 27,1 20,1 18,3 26 14 44 24 ENE 1021,4 10 60 0,0
23.06.2018 15:00:00 21,7 7,1 26,8 20,0 18,3 23 12 45 25 ENE 1022,1 9 60 0,0
23.06.2018 14:00:00 21,1 7,0 24,8 20,0 18,3 25 14 41 22 NE 1022,6 8 60 0,0
23.06.2018 13:00:00 20,6 5,0 23,9 20,0 18,3 27 15 43 23 NE 1023,1 7 60 0,0
23.06.2018 12:00:00 19,4 5,4 24,4 20,0 18,3 24 13 45 24 NE 1023,4 6 60 0,0
23.06.2018 11:00:00 17,9 6,4 21,6 20,1 18,3 24 13 49 26 ENE 1023,8 8 60 0,0
23.06.2018 10:00:00 16,5 5,7 19,6 20,2 18,3 30 16 45 24 ENE 1024,1 9 60 0,0
23.06.2018 09:00:00 15,2 5,7 16,7 20,3 18,3 24 13 42 23 ENE 1024,2 11 60 0,0
23.06.2018 08:00:00 14,0 4,6 12,2 20,4 18,2 24 13 44 24 ENE 1024,0 14 22 0,0
23.06.2018 07:00:00 12,7 4,6 10,5 20,6 18,3 22 12 37 20 ENE 1024,1 19 0 0,0
23.06.2018 06:00:00 12,2 4,9 10,5 20,8 18,3 19 10 34 19 ENE 1024,1 40 0 0,0
23.06.2018 05:00:00 12,7 5,4 10,6 20,9 18,2 19 10 34 19 ENE 1024,2 41 0 0,0
23.06.2018 04:00:00 12,7 5,6 10,8 21,0 18,2 14 8 29 15 NE 1024,3 43 0 0,0
23.06.2018 03:00:00 13,5 5,6 11,9 21,1 18,2 21 11 39 21 ENE 1024,3 42 0 0,0
23.06.2018 02:00:00 14,1 6,0 12,5 21,2 18,2 23 13 39 21 ENE 1024,6 43 0 0,0
23.06.2018 01:00:00 14,6 6,2 12,8 21,3 18,2 23 13 36 20 NE 1024,9 44 0 0,0
23.06.2018 00:00:00 14,7 6,5 13,0 21,4 18,2 19 11 30 16 NE 1025,0 44 0 0,0
22.06.2018 23:00:00 15,4 6,4 13,7 21,4 18,2 15 8 29 16 NE 1024,8 47 0 0,0
22.06.2018 22:00:00 16,4 6,5 14,8 21,4 18,2 18 10 38 21 NE 1024,0 45 0 0,0
22.06.2018 21:00:00 18,3 6,5 18,7 21,3 18,2 24 13 46 25 NE 1023,5 13 23 0,0
22.06.2018 20:00:00 19,7 6,8 22,0 21,3 18,2 30 16 44 24 NE 1023,1 12 60 0,0
22.06.2018 19:00:00 20,5 6,4 23,2 21,2 18,2 29 16 48 26 NE 1022,8 11 60 0,0
22.06.2018 18:00:00 20,6 5,8 22,9 21,0 18,2 33 18 55 30 NE 1023,2 8 60 0,0
22.06.2018 17:00:00 20,7 5,9 24,8 20,9 18,1 31 17 59 32 ENE 1023,3 8 60 0,0
22.06.2018 16:00:00 20,4 4,8 25,4 20,9 18,1 29 16 46 25 NE 1023,5 8 60 0,0
22.06.2018 15:00:00 20,3 4,3 23,9 20,9 18,1 26 14 49 27 NE 1023,4 6 60 0,0
22.06.2018 14:00:00 19,6 3,3 22,3 20,9 18,1 32 18 50 27 NE 1023,7 5 60 0,0
22.06.2018 13:00:00 18,2 2,1 21,7 20,9 18,1 34 18 54 29 ENE 1023,9 5 60 0,0
22.06.2018 12:00:00 16,9 2,8 22,2 21,0 18,1 28 15 46 25 ENE 1024,1 6 60 0,0
22.06.2018 11:00:00 16,3 5,8 19,8 21,1 18,1 29 16 48 26 NE 1024,1 7 60 0,0
22.06.2018 10:00:00 14,3 5,6 17,5 21,2 18,1 30 16 55 30 ENE 1024,2 8 60 0,0
22.06.2018 09:00:00 13,0 5,2 15,2 21,4 18,1 30 16 47 25 ENE 1024,3 10 60 0,0
22.06.2018 08:00:00 11,5 5,1 10,5 21,6 18,0 25 14 40 22 NE 1024,3 14 22 0,0
22.06.2018 07:00:00 10,8 5,1 9,8 21,7 18,0 26 14 43 23 NE 1024,1 15 0 0,0
22.06.2018 06:00:00 11,3 5,4 10,2 21,9 18,0 27 14 43 23 NE 1023,8 41 0 0,0
22.06.2018 05:00:00 12,0 5,8 11,0 22,1 18,0 27 15 43 23 NE 1023,3 20 0 0,0
22.06.2018 04:00:00 12,6 6,6 11,5 22,2 18,0 20 11 38 20 NE 1023,3 44 0 0,0
22.06.2018 03:00:00 13,8 7,1 12,5 22,3 18,0 20 11 36 19 NE 1023,0 42 0 0,0
22.06.2018 02:00:00 15,0 8,9 13,9 22,4 18,0 23 12 39 21 NE 1022,6 39 0 0,0
22.06.2018 01:00:00 16,4 10,7 15,2 22,4 18,0 20 11 35 19 NNE 1022,1 39 0 0,0
22.06.2018 00:00:00 17,5 11,7 16,3 22,5 18,0 22 12 36 20 NNE 1021,8 39 0 0,0
21.06.2018 23:00:00 18,8 12,8 17,8 22,4 17,9 24 13 36 20 NNE 1021,5 37 0 0,0
21.06.2018 22:00:00 19,9 14,0 18,7 22,5 18,0 23 13 41 22 NNE 1020,5 33 0 0,0
21.06.2018 21:00:00 21,4 15,2 21,6 22,4 17,9 16 9 39 21 N 1019,6 14 6 0,0
21.06.2018 20:00:00 23,2 16,3 25,5 22,2 17,9 16 9 37 20 N 1019,0 14 60 0,0
21.06.2018 19:00:00 25,0 16,2 28,4 22,1 17,9 18 10 34 18 N 1018,4 16 60 0,0
21.06.2018 18:00:00 25,8 16,1 28,6 21,9 17,9 14 8 32 18 N 1018,3 17 60 0,0
21.06.2018 17:00:00 26,1 16,4 29,8 21,8 17,9 14 8 36 20 N 1018,1 17 57 0,0
21.06.2018 16:00:00 26,8 17,0 32,5 21,6 17,9 17 9 33 18 N 1018,0 20 60 0,0
21.06.2018 15:00:00 26,6 17,1 28,9 21,5 17,9 16 8 32 18 N 1017,9 23 54 0,0
21.06.2018 14:00:00 27,4 12,6 32,4 21,4 17,8 10 5 24 13 N 1017,7 23 60 0,0
21.06.2018 13:00:00 26,9 14,3 30,6 21,4 17,9 11 6 26 14 N 1017,9 18 60 0,0
21.06.2018 12:00:00 26,8 13,5 31,3 21,3 17,8 13 7 25 14 N 1018,2 17 58 0,0
21.06.2018 11:00:00 26,4 14,8 30,3 21,4 17,8 16 9 26 14 NNE 1018,0 19 60 0,0
21.06.2018 10:00:00 24,8 14,6 30,6 21,4 17,8 11 6 19 11 NNE 1018,2 21 60 0,0
21.06.2018 09:00:00 23,5 15,5 26,2 21,5 17,8 3 1 6 3 SSE 1018,3 42 60 0,0
21.06.2018 08:00:00 20,8 14,2 19,0 21,6 17,8 3 2 6 3 ENE 1018,5 31 23 0,0
21.06.2018 07:00:00 20,0 13,2 17,4 21,6 17,8 2 1 7 4 E 1018,3 35 0 0,0
21.06.2018 06:00:00 20,8 12,7 17,7 21,7 17,8 7 4 12 7 NE 1017,9 19 0 0,0
21.06.2018 05:00:00 21,6 12,4 19,2 21,8 17,8 9 5 14 7 NE 1017,6 44 0 0,0
21.06.2018 04:00:00 21,6 13,0 19,2 21,9 17,8 9 5 10 5 NE 1017,9 43 0 0,0
21.06.2018 03:00:00 22,2 13,3 19,9 21,9 17,8 8 5 16 9 NE 1017,9 44 0 0,0
21.06.2018 02:00:00 22,4 13,7 20,0 21,9 17,7 9 5 15 8 NE 1018,2 44 0 0,0
21.06.2018 01:00:00 23,0 13,5 20,7 22,0 17,8 11 6 16 8 NE 1018,3 46 0 0,0
21.06.2018 00:00:00 23,6 13,7 21,2 22,0 17,8 11 6 17 9 NE 1018,2 46 0 0,0
20.06.2018 23:00:00 24,6 14,4 21,9 21,9 17,8 12 7 20 11 NNE 1018,0 44 0 0,0
20.06.2018 22:00:00 24,5 16,2 22,4 21,8 17,7 10 6 16 9 N 1017,4 45 0 0,0
20.06.2018 21:00:00 26,6 16,5 26,7 21,6 17,7 9 5 18 10 NNW 1016,8 37 18 0,0
20.06.2018 20:00:00 28,1 17,3 28,9 21,4 17,7 8 4 19 10 NNW 1016,6 41 44 0,0
20.06.2018 19:00:00 29,5 14,9 32,3 21,2 17,8 10 5 16 9 NNW 1016,4 49 58 0,0
20.06.2018 18:00:00 29,6 14,2 30,7 21,0 17,7 8 4 20 11 W 1016,6 39 57 0,0
20.06.2018 17:00:00 29,9 15,6 35,8 20,8 17,7 8 4 18 10 ENE 1016,8 43 60 0,0
20.06.2018 16:00:00 29,5 14,9 36,0 20,6 17,7 4 2 18 10 SW 1017,1 51 60 0,0
20.06.2018 15:00:00 28,7 13,4 34,6 20,4 17,7 4 2 15 8 E 1017,6 34 60 0,0
20.06.2018 14:00:00 28,5 14,0 33,6 20,3 17,7 5 3 18 10 S 1017,8 15 60 0,0
20.06.2018 13:00:00 27,4 14,4 32,0 20,2 17,7 6 3 14 8 E 1018,4 40 60 0,0
20.06.2018 12:00:00 26,1 14,5 34,2 20,2 17,7 5 3 12 6 SW 1018,8 45 60 0,0
20.06.2018 11:00:00 25,0 15,9 31,3 20,2 17,7 6 3 17 9 E 1018,8 19 60 0,0
20.06.2018 10:00:00 23,2 15,8 26,8 20,2 17,7 10 5 18 10 ENE 1019,4 18 60 0,0
20.06.2018 09:00:00 21,1 15,4 23,5 20,3 17,7 14 7 20 11 E 1019,6 18 60 0,0
20.06.2018 08:00:00 19,5 15,2 17,8 20,4 17,7 12 7 19 10 ENE 1019,8 20 23 0,0
20.06.2018 07:00:00 18,3 14,8 16,3 20,5 17,7 13 7 21 11 NE 1019,9 20 0 0,0
20.06.2018 06:00:00 17,8 14,9 16,3 20,6 17,7 13 7 24 13 ENE 1019,9 30 0 0,0
20.06.2018 05:00:00 18,2 15,1 16,8 20,6 17,7 17 9 29 15 NE 1020,0 30 0 0,0
20.06.2018 04:00:00 18,8 15,3 17,5 20,7 17,7 18 10 31 17 ENE 1020,1 32 0 0,0
20.06.2018 03:00:00 19,2 15,3 17,8 20,7 17,7 16 9 28 15 ENE 1020,4 60 0 0,0
20.06.2018 02:00:00 19,7 14,9 18,2 20,8 17,7 16 9 25 13 ENE 1020,5 60 0 0,0
20.06.2018 01:00:00 20,3 14,9 18,6 20,8 17,7 16 9 25 14 ENE 1020,6 60 0 0,0
20.06.2018 00:00:00 20,4 15,0 18,7 20,7 17,7 16 8 24 13 NE 1020,9 60 0 0,0
19.06.2018 23:00:00 21,5 15,3 20,0 20,7 17,7 16 9 23 13 NNE 1021,0 60 0 0,0
19.06.2018 22:00:00 22,4 15,5 20,7 20,6 17,7 14 8 24 13 NNE 1020,5 60 0 0,0
19.06.2018 21:00:00 24,2 15,7 24,5 20,5 17,7 14 7 35 19 NE 1020,3 26 20 0,0
19.06.2018 20:00:00 25,5 15,5 27,9 20,3 17,7 24 13 35 19 NE 1020,2 20 60 0,0
19.06.2018 19:00:00 26,4 15,4 29,1 20,1 17,7 17 9 36 20 NE 1020,3 22 60 0,0
19.06.2018 18:00:00 26,8 16,1 28,9 19,9 17,7 16 8 34 18 NE 1020,7 18 60 0,0
19.06.2018 17:00:00 26,1 15,2 30,6 19,7 17,7 21 12 47 26 ENE 1021,0 20 60 0,0
19.06.2018 16:00:00 25,9 15,0 30,9 19,6 17,7 14 8 39 21 ENE 1021,5 22 60 0,0
19.06.2018 15:00:00 25,0 14,8 29,6 19,4 17,7 19 11 34 18 NE 1022,0 23 60 0,0
19.06.2018 14:00:00 23,8 13,9 28,9 19,3 17,7 20 11 38 20 E 1022,8 22 60 0,0
19.06.2018 13:00:00 22,8 14,1 25,3 19,2 17,7 11 6 30 16 NE 1023,5 26 53 0,0
19.06.2018 12:00:00 22,2 14,3 25,6 19,2 17,6 15 8 35 19 ENE 1023,8 30 54 0,0
19.06.2018 11:00:00 20,5 14,4 20,8 19,3 17,7 10 5 20 11 ENE 1024,6 37 21 0,0
19.06.2018 10:00:00 20,2 14,6 24,1 19,3 17,7 10 5 24 13 NE 1025,1 17 57 0,0
19.06.2018 09:00:00 18,8 14,3 22,1 19,3 17,6 13 7 20 11 NE 1025,3 18 60 0,0
19.06.2018 08:00:00 17,4 14,1 16,0 19,5 17,7 10 5 15 8 NE 1025,4 18 23 0,0
19.06.2018 07:00:00 15,5 13,3 13,2 19,5 17,7 9 5 11 6 NNE 1025,8 18 0 0,2
19.06.2018 06:00:00 14,4 12,9 12,9 19,6 17,6 5 3 12 7 NNE 1025,7 19 0 0,0

tt = Température de l'air
td = dewpoint
tt 5cm = Température de l'air 5cm
tt -20cm = Température de l'air -20cm
tt -100cm = Température de l'air -100cm
ff = Vitesse du vent
fx = gusts
dd = Direction du vent
ppp = reduced air pressure
vv = visibility
sd = Ensoleillement
rr = Quantités de précipitations

stations d'obs. à proximité